Regional Weather Roundup
Issued by NWS State College, PA

Home | Current Version | Previous Version | Graphics & Text | Print | Product List | Glossary On
Versions: 1 2 3 4 5 6 7 8 9 10 11 12 13 14 15 16 17 18 19 20 21 22 23 24 25 26 27 28 29 30 31 32 33 34 35 36 37 38 39 40 41 42 43 44 45 46 47 48 49 50
000
ASUS41 KCTP 302010
RWRCTP

REGIONAL WEATHER ROUNDUP
NATIONAL WEATHER SERVICE STATE COLLEGE PA
400 PM EDT SUN APR 30 2017

Note: "fair" indicates few or no clouds below 12,000 feet with no
significant weather and/or obstructions to visibility.

* = STATION THAT DOES NOT REPORT PRECIPITATION /E.G. RAIN...SNOW...ETC/
    THUNDER OR FOG.

PAZ002>004-007>009-013>016-020>023-029>032-302100-
WESTERN PENNSYLVANIA

CITY           SKY/WX    TMP DP  RH WIND       PRES   REMARKS
ERIE           SUNNY     57  47  69 NE9       29.92F
MEADVILLE      SUNNY     83  59  44 SW14G25   29.92F
FRANKLIN*      MOSUNNY   79  63  57 SW13G21   29.96F
NEW CASTLE     NOT AVBL
BEAVER COUNTY  MOSUNNY   84  61  45 SW15      29.94F
BUTLER*        MOSUNNY   84  61  45 SW13G18   29.96F
PITTSBURGH INT MOSUNNY   86  58  38 SW12G23   29.95F
PITTSBURGH     CLOUDY    85  57  38 SW12      29.96F
INDIANA*       MOSUNNY   84  63  48 W13G20    30.00F
LATROBE        MOSUNNY   82  61  47 SW12G17   29.99F
WASHINGTON CO* SUNNY     84  59  42 SW12G26   29.98F
$$

PAZ004>006-010>012-017>019-024>028-033>037-041-042-045-046-049>053-302100-
CENTRAL PENNSYLVANIA

CITY           SKY/WX    TMP DP  RH WIND       PRES   REMARKS
BRADFORD       CLOUDY    79  60  52 SW14G22   29.99F
DUBOIS         MOSUNNY   80  63  55 SW10      29.99F
CLEARFIELD     CLOUDY    78  62  57 S10       30.02S THUNDER
JOHNSTOWN      CLOUDY    77  63  61 SE9       30.02F
ALTOONA        PTSUNNY   80  66  62 S7        30.03F
STATE COLLEGE  MOSUNNY   75  61  60 S9        30.03F
WILLIAMSPORT   CLOUDY    71  51  49 E10       30.04F
SELINSGROVE    PTSUNNY   72  58  61 SE7       30.06F
FT INDIANTOWN  CLOUDY    71  59  67 E12       30.08F
CAPITAL CITY   MOSUNNY   76  60  57 E14       30.05F
HARRISBURG     PTSUNNY   76  63  64 SE14      30.05F
YORK           SUNNY     77  66  68 E9        30.05F
$$

PAZ038>040-043-044-047-048-054-055-060>062-067>071-302100-
EASTERN PENNSYLVANIA

CITY           SKY/WX    TMP DP  RH WIND       PRES   REMARKS
SCRANTON       CLOUDY    65  45  48 SE7       30.12R
MOUNT POCONO   CLOUDY    57  41  55 SE12      30.16S
ALLENTOWN      CLOUDY    66  44  45 E12       30.15S
QUAKERTOWN*    MOCLDY    66  45  45 SE10      30.16S
READING        CLOUDY    70  50  49 E7        30.10F
LANCASTER      CLOUDY    72  60  66 E13       30.08F
COATESVILLE    CLOUDY    72  50  46 E9        30.12F
POTTSTOWN      CLOUDY    67  46  47 E9        30.14F
BLUE BELL      CLOUDY    68  50  52 E12       30.14F
DOYLESTOWN     CLOUDY    65  47  52 VRB3      30.15F
WILLOW GROVE   NOT AVBL
NORTH PHILA    CLOUDY    69  50  50 E16       30.15F
PHILADELPHIA   PTSUNNY   74  53  48 E12       30.11F
$$




USA.gov is the U.S. government's official web portal to all federal, state and local government web resources and services.